Tracking 18980 objects as of 22-Feb-2018
HD Live streaming from Space Station
objects crossing your sky now

FENGYUN 1C DEB

Track FENGYUN 1C DEB now!
10-day predictions


NORAD ID: 33613
Int'l Code: 1999-025DCW
Perigee: 823.5 km
Apogee: 878.4 km
Inclination: 98.9 °
Period: 101.8 minutes
Semi major axis: 7221 km
RCS: 0.01 m2 (small)
Launch date: May 10, 1999
Source: People's Republic of China (PRC)
Launch site: Taiyaun Space Center, China (TSC)

Note: This is SATELLITE DEBRIS
aabbcc
Your satellite tracking list
Your tracking list is empty




NASA's NSSDC Master Catalog

Two Line Element Set (TLE):
1 33613U 99025DCW 18046.36558059 +.00000778 +00000-0 +42583-3 0  9998
2 33613 098.9263 097.5417 0037964 009.2513 350.9351 14.14560780239744
Source of the keplerian elements: AFSPC